SHIJIAN-16 (SJ-16) (39358 NORAD) Tracking and Keplerian Element Data

This shows tracking and keplerian element data for the satellite.

Feedback or suggestion? Click here.




ElementValue
Catalog39358
NameSHIJIAN-16 (SJ-16)
Epoch Orbit55440
Epoch Day13.17069603
Epoch Year2024
RAAN229.4777
Inclination74.9716
Eccentricity0.0019005
Argument of Perigee216.1078
Mean Anonmoly143.8826
Mean Motion14.8801383
Decay Rate1.399E-05
L11 39358U 13057A 24013.17069603 .00001399 00000+0 15499-3 0 9998
L22 39358 74.9716 229.4777 0019005 216.1078 143.8826 14.88013830554408



Live tracking and technical data element details for SHIJIAN-16 (SJ-16) (NORAD 39358). SHIJIAN-16 (SJ-16) can be tracked NOW for your location showing map with azimuth and elevation plus other details from your city location.







IsCatalogInMostPopularTable: catalog: 39358, numindb: 79
Update: records affected: 1



GetName: 39358 SHIJIAN-16 (SJ-16)

Hit Count: updated at: Sun, 14 Apr 2024 23:05:37 GMT